Starlink 31960

operational
NORAD ID: 59931 Int'l Des: 2024-106 Owner: SPXS Country: US Constellation: starlink
LEOCIRCULAR

About Starlink 31960

Description loading...

Live Position

Loading 3D Globe...

Upcoming Passes

Altitude History

Altitude vs Time

uPlot chart will show altitude changes over time

Two-Line Element Set

1 59931U 24106K 25311.66598954 -.00001525 00000-0 -45917-4 0 9999
2 59931 43.0005 301.4116 0000833 264.1810 95.8947 15.27572152 81865
Epoch: Nov 7, 2025 • Age: 67 hours

Current Status

Altitude 495.4 km
Velocity 7.62 km/s
Sub-Earth Point -42.01°S, 4.97°W
Launch Date Jun 1, 2024
Age 1.4 years
Type internet

Technical Details

Classification Payload
Mass 730.00 kg
Dry Mass 700.00 kg
Total Mass 730.00 kg
Length 0.30 m
Diameter 4.10 m
Span 29.00 m
Shape Box + pan
Manufacturer SPXS
Bus Type Starlink V2M
Phase Status In Orbit
Owner/State SPXS/US

Large Constellations

Loading constellations...